Terminal Aerodrome Forecast
Issued by NWS

Home | Current Version | Previous Version | Text Only | Print | Product List | Glossary On
Versions: 1 2 3 4 5 6 7 8 9 10 11 12 13 14 15 16 17 18 19 20 21 22 23 24 25 26 27 28 29 30
000
FTAK31 PANC 232334
TAFAIL
TAF
PAIL 232334Z 2400/2424 10007KT P6SM VCSH SCT035 OVC100
     FM240500 11011G18KT P6SM -RA SCT015 OVC025
     FM240800 12011G18KT P6SM -RA SCT008 OVC015
     FM242200 23014G20KT P6SM -SHRA BKN025 OVC040=

USA.gov is the U.S. government's official web portal to all federal, state and local government web resources and services.